Regional Weather Roundup
Issued by NWS

Home | Current Version | Previous Version | Text Only | Print | Product List | Glossary Off
Versions: 1 2 3 4 5 6 7 8 9 10 11 12 13 14 15 16 17 18 19 20 21 22 23 24 25 26 27 28 29 30 31 32 33 34 35 36 37 38 39 40 41 42 43 44 45 46 47 48 49 50

000
ASUS43 KLMK 280910
RWRKY
KENTUCKY REGIONAL WEATHER ROUNDUP
NATIONAL WEATHER SERVICE LOUISVILLE KY
500 AM EDT MON JUL 28 2014

NOTE "FAIR" INDICATES FEW OR NO CLOUDS BELOW 12,000 FEET
WITH NO SIGNIFICANT WEATHER AND/OR OBSTRUCTIONS TO VISIBILITY.

KYZ001>023-026-027-061>063-070>075-281000-
WESTERN AND SOUTH CENTRAL KENTUCKY

CITY           SKY/WX    TMP DP  RH WIND       PRES   REMARKS
PADUCAH        CLEAR     69  58  67 W5        29.98R
HENDERSON      CLEAR     64  57  77 W5        29.94S
OWENSBORO      CLEAR     65  59  81 W6        29.94S
HOPKINSVILLE   CLEAR     69  59  70 NW3       29.97R
BOWLING GREEN  CLEAR     69  57  65 W5        29.94S
GLASGOW        CLEAR     66  58  75 CALM      29.94R
$$

KYZ024-025-028>034-038-045-046-053-281000-
NORTH CENTRAL KENTUCKY

CITY           SKY/WX    TMP DP  RH WIND       PRES   REMARKS
LOUISVILLE/SDF CLEAR     68  59  73 W8        29.89R
LOUISVILLE/LOU CLEAR     68  58  70 W6        29.90R
FORT KNOX      CLEAR     62  59  88 W5        29.91R
$$

KYZ035>037-039>044-047>052-055>060-089>105-281000-
NORTHEAST KENTUCKY

CITY           SKY/WX    TMP DP  RH WIND       PRES   REMARKS
LEXINGTON      CLEAR     65  58  78 W6        29.90R
COVINGTON      PTCLDY    63  58  83 W10       29.85R
FRANKFORT      CLEAR     64  58  80 SW5       29.88R
$$

KYZ054-064>069-076>088-106>120-281000-
SOUTHEAST KENTUCKY

CITY           SKY/WX    TMP DP  RH WIND       PRES   REMARKS
JACKSON        PTCLDY    65  60  84 W6        29.89R
LONDON         PTCLDY    68  61  78 NW6       29.92R
SOMERSET       PTCLDY    63  63 100 W3        29.93R
MIDDLESBORO    FOG       66  66 100 CALM      29.92S VSB 3/4
MONTICELLO     SUNNY     66  64  93 W5        29.94S
$$




USA.gov is the U.S. government's official web portal to all federal, state and local government web resources and services.